C/2007 P1 ( McNaught )

Japanese version
Home page
Total 5,708 html files since Dec. 4, 1995
Updated on September 24, 2007

---------------------------------------------------------------------

* Profile

Discovery Date August 7, 2007
Magnitude 18.7 mag
Discoverer R. H. McNaught (Siding Spring Observatory)

* Orbital Elements

T 2007 Mar. 26.439 TT                                   MPC
q   0.63318              (2000.0)            P               Q
                   Peri.   97.689       +0.029624       +0.986938
                   Node   190.879       +0.178246       +0.150666
e   1.0            Incl.  122.963       +0.983540       -0.057032
From 12 observations 2007 Aug. 7-9.

* Finding Charts

* Magnitudes Graph

        m1 = 13.0 + 5 log d + 10.0 log r

---------------------------------------------------------------------

The orbital elements are published on M.P.E.C. 2007-P23.
The charts are made with StellaNavigator Ver.8 (AstroArts).
The magnitudes graphs are made with Comet for Windows.

---------------------------------------------------------------------

Copyright(C) 1995-2007 Seiichi Yoshida (comet@aerith.net). All rights reserved.